FAUNA (43052 NORAD) Tracking and Keplerian Element Data

This shows tracking and keplerian element data for the satellite.

Feedback or suggestion? Click here.




ElementValue
Catalog43052
NameFAUNA
Epoch Orbit5257
Epoch Day317.51317101
Epoch Year2018
RAAN32.9244
Inclination51.6404
Eccentricity0.0002888
Argument of Perigee101.9329
Mean Anonmoly258.198
Mean Motion15.40102617
Decay Rate2.827E-05
L11 43052U 17071R 18317.51317101 .00002827 00000-0 79377-4 0 9995
L22 43052 51.6404 32.9244 0002888 101.9329 258.1980 15.40102617 52570

Live tracking and technical data element details for FAUNA (NORAD 43052). FAUNA can be tracked NOW for your location showing map with azimuth and elevation plus other details from your city location.

Track the satellite on the map from your city or location and see movement details for azimuth, elevation, latitude, longitude, range, height, and movement on the map or in text.







IsCatalogInMostPopularTable: catalog: 43052, numindb: 152
Update: records affected: 1



GetName: 43052 FAUNA

Hit Count: updated at: Wed, 14 Nov 2018 16:08:57 GMT